Location: Steinbach
(49.5170°N, 96.6830°W)
Time: 20:52:59
(UTC-06:00)

Daily predictions for brighter satellites

Satellite Brightness Start Highest point End
(mag) Time Altitude Azimuth Time Altitude Azimuth Time Altitude Azimuth
Cosmos 2263 4.3 17:28:15 10° NNW 17:34:02 64° ENE 17:39:43 10° SE
AQUARIUS 4.2 17:30:37 10° SSE 17:35:04 66° ENE 17:39:33 10° N
NOSS 2-1 (C) 3.9 17:34:56 10° SSW 17:38:24 39° ESE 17:42:20 10° NE
Cosmos 1842 Rocket 3.6 17:34:01 10° N 17:38:31 84° E 17:42:55 10° S
NOSS 2-1 (D) 3.9 17:35:34 10° SSW 17:39:03 40° ESE 17:43:00 10° NE
In-Cosmos 22 4.2 17:36:08 10° SSW 17:41:26 86° W 17:46:52 10° NNE
SJ-7 4.5 17:37:45 10° SSE 17:41:52 89° W 17:46:04 10° NNW
Cosmos 2369 Rocket 2.3 17:36:18 10° NNW 17:42:00 88° WSW 17:47:42 10° SSE
Cosmos 1992 Rocket 4.5 17:37:42 10° S 17:42:32 41° ESE 17:47:26 10° NE
ERBS 3.8 17:41:12 10° NW 17:43:59 23° N 17:46:46 10° ENE
Meteor 1-24 Rocket 4.0 17:40:01 10° SSW 17:45:46 78° WNW 17:51:45 10° N
IRAS Rocket 4.2 17:41:18 10° SSE 17:46:50 76° ENE 17:52:26 10° NNW
Cosmos 1300 3.4 17:44:51 10° N 17:48:20 31° ENE 17:51:47 10° SE
CORIOLIS 4.1 17:43:12 10° SSE 17:48:33 78° ENE 17:53:55 10° NNW
GEOS 3 Rocket 4.3 17:44:42 10° E 17:49:33 36° NNE 17:54:28 10° NNW
Nadezhda 1 Rocket 4.1 17:43:25 10° S 17:49:40 86° W 17:56:04 10° N
Geosat 4.2 17:45:16 10° NE 17:50:12 53° ESE 17:55:07 10° SSW
Cosmos 2219 Rocket 4.4 17:47:34 10° WNW 17:51:05 16° NNW 17:54:38 10° N
Cosmos 1656 Rocket 4.1 17:46:42 10° NNW 17:51:49 39° NE 17:56:57 10° ESE
CZ-4 R/B 1.5 17:47:39 10° SSE 17:51:51 70° ENE 17:56:06 10° N
SL-14 R/B 4.4 17:50:17 10° SE 17:53:34 25° E 17:56:50 10° NE
Cosmos 968 Rocket 3.4 17:49:57 10° NNW 17:55:07 65° ENE 18:00:12 10° SE
BREEZE-M DEB (TANK) 4.1 17:51:07 10° SSW 17:55:26 22° SSE 17:57:47 10° ESE
CSL-04 Rocket 4.0 17:50:29 10° S 17:56:02 75° WSW 18:01:35 10° NNW
ATLAS 2AS CENTAUR R/B 3.4 17:48:24 10° NW 17:56:21 69° SW 18:03:44 10° SSE
Cosmos 1943 Rocket 2.2 17:51:26 10° NNW 17:57:06 84° ENE 18:02:40 10° SSE
Cosmos 1484 Rocket 3.5 17:55:02 10° S 17:58:47 57° W 18:02:30 10° NNW
CZ-2C R/B 4.1 17:57:37 10° NNE 18:02:13 46° E 18:06:42 10° S
Cosmos 2341 Rocket 4.0 17:56:58 10° N 18:03:16 85° E 18:09:34 10° S
ERS-2 3.2 18:00:41 10° ESE 18:03:43 25° ENE 18:06:47 10° N
NOAA 12 4.4 18:00:04 10° SE 18:05:01 45° ENE 18:10:01 10° N
NOSS 2-1 (E) 3.4 18:03:32 10° SSW 18:07:16 67° SE 18:11:06 13° NE
Okean 3 Rocket 4.0 18:03:07 10° SSE 18:07:23 42° E 18:11:40 10° NNE
SKYMED 2 4.1 18:07:47 10° NNE 18:11:53 39° E 18:15:58 10° SSE
USA 161 3.8 18:12:06 10° NNW 18:13:46 17° WNW 18:15:20 10° WSW
Cosmos 2333 Rocket 4.5 18:10:45 10° WNW 18:14:00 15° NNW 18:17:17 10° N
Cosmos 1346 Rocket 3.7 18:12:39 10° N 18:16:01 26° ENE 18:19:20 10° SE
Cosmos 1315 Rocket 3.6 18:13:38 10° SSE 18:17:02 29° E 18:19:42 14° NE
Meteor 1-28 Rocket 3.4 18:13:39 10° N 18:17:29 74° WNW 18:21:17 10° SSW
SMAP 4.2 18:14:24 10° S 18:18:54 49° W 18:23:26 10° NNW
NOSS 3-4 (A) 3.8 18:12:12 10° NW 18:19:04 69° NE 18:26:29 10° SE
NOSS 3-4 (C) 3.8 18:12:19 10° NW 18:19:11 68° NE 18:26:35 10° SE
SL-24 R/B - RUBIN 2 3.5 18:15:43 10° NW 18:20:24 67° NE 18:24:45 10° SE
FENGYUN 3A 3.6 18:18:38 10° SSE 18:23:56 68° ENE 18:29:18 10° N
YAOGAN 1 2.7 18:20:10 10° S 18:24:29 78° WSW 18:28:51 10° NNW
Cosmos 1867 4.5 18:19:23 10° WSW 18:24:36 44° NW 18:29:46 10° NNE
Meteor 2-16 Rocket 4.5 18:19:55 10° N 18:26:03 87° W 18:32:11 10° S
Envisat 4.2 18:25:58 19° ENE 18:26:35 20° ENE 18:30:09 10° NNE
NOSS 3-3 (A) 4.0 18:23:30 10° SW 18:29:40 86° SE 18:35:35 14° NE
NOSS 3-3 (C) 4.0 18:23:37 10° SW 18:29:46 85° SE 18:35:41 14° NE
Cosmos 1151 Rocket 4.1 18:27:04 10° NNE 18:30:41 24° ENE 18:31:33 23° E
Tiangong 1 2.9 18:29:14 10° SW 18:30:59 17° S 18:32:12 13° SSE
Cosmos 1726 3.2 18:27:49 10° NNW 18:31:22 47° W 18:34:53 10° SSW
KORONAS-FOTON 4.4 18:28:19 10° SSW 18:32:03 57° WNW 18:35:49 10° N
Cosmos 2181 Rocket 4.1 18:25:50 10° S 18:32:18 87° E 18:38:45 10° N
ATLAS 5 CENTAUR R/B 3.8 18:28:49 10° NW 18:32:32 19° N 18:35:50 12° NNE
Lacrosse 4 Rocket 3.8 18:31:46 10° WNW 18:34:12 15° NW 18:36:37 10° N
H-2A R/B 3.1 18:31:59 10° SE 18:35:33 39° ENE 18:39:11 10° N
PKM 3.2 18:33:26 10° WNW 18:36:11 80° NNE 18:37:57 24° ESE
Cosmos 44 Rocket 4.4 18:33:18 10° SSE 18:36:56 23° ESE 18:37:32 22° ESE
SL-16 R/B 4.1 18:33:32 10° W 18:38:06 24° NW 18:42:42 10° NNE
Meteor 1-21 Rocket 4.5 18:32:22 10° SSW 18:38:17 80° WNW 18:44:16 10° N
FengYun 1-2 T 4.4 18:33:11 10° SE 18:38:34 49° ENE 18:43:57 10° N
Cosmos 2221 3.7 18:37:36 10° NNW 18:41:47 45° W 18:45:57 10° SSW
Cosmos 1328 3.8 18:42:06 10° S 18:46:03 59° E 18:49:13 15° NNE
Cosmos 1455 3.2 18:43:22 10° N 18:45:54 28° NE 18:45:54 28° NE
Cosmos 1400 Rocket 3.2 18:43:17 10° SSW 18:47:19 67° WNW 18:51:27 10° N
Resurs 01 Rocket 3.9 18:50:52 11° NNE 18:50:52 11° NNE 18:51:06 10° NNE
SL-8 Rocket 4.3 18:42:02 10° NNW 18:48:12 71° W 18:54:22 10° S
Cosmos 909 Rocket 4.2 18:42:18 10° NW 18:49:31 59° NE 18:54:14 18° ESE
Cosmos 1943 3.5 18:44:56 10° SW 18:50:32 66° WNW 18:55:51 12° NNE
Meteor 2-2 Rocket 4.2 18:44:47 10° NNW 18:50:36 86° ENE 18:56:17 10° SSE
Cosmos 2218 Rocket 4.1 18:45:08 10° NNW 18:51:20 79° W 18:57:27 10° S
Cosmos 1515 Rocket 3.8 18:49:25 10° N 18:53:35 41° ENE 18:55:37 25° SE
EO 1 Del DPAF 3.1 18:55:21 25° NNE 18:57:30 71° ESE 19:01:19 10° S
Cosmos 1408 Rocket 3.4 18:54:39 10° S 18:58:55 66° E 19:01:55 19° NNE
COSMO-SKYMED 1 2.8 18:55:42 10° N 19:00:02 71° WNW 19:04:22 10° SSW
Cosmos 1697 Rocket 4.2 18:56:48 10° N 19:00:17 19° NNE 19:00:17 19° NNE
TELKOM 3 4.4 18:58:45 10° W 19:00:09 36° W 19:00:09 36° W
SPOT 3 Rocket 3.8 18:56:29 10° S 19:01:37 71° WSW 19:06:48 10° NNW
ALOS 3.1 18:59:10 10° S 19:03:44 53° W 19:08:19 10° NNW
Cosmos 2058 4.3 19:01:36 10° SSE 19:03:30 23° SE 19:03:30 23° SE
Cosmos 2228 Rocket 3.1 19:02:07 10° N 19:06:40 60° ENE 19:11:12 10° SSE
USA 215 3.8 19:05:05 28° NE 19:08:11 46° N 19:14:22 10° WNW
Landsat 4 4.0 19:05:24 16° N 19:08:16 64° WNW 19:11:58 10° SSW
Cosmos 1777 Rocket 4.2 19:06:11 10° NNW 19:11:25 71° WSW 19:16:38 10° SSE
USA 81 4.2 19:08:35 10° SSE 19:13:37 49° E 19:15:12 37° NE
Cosmos 2151 4.4 19:09:43 10° SSE 19:11:34 24° SSE 19:11:34 24° SSE
Cosmos 1703 3.9 19:10:24 10° S 19:13:13 41° SSE 19:13:13 41° SSE
Cosmos 1626 2.1 19:16:54 10° SSW 19:20:37 78° W 19:21:06 64° NNW
ERBS 3.7 19:17:53 10° NW 19:20:03 31° NNW 19:20:03 31° NNW
Cosmos 2322 Rocket 4.4 19:21:06 10° N 19:21:41 10° NNE 19:21:41 10° NNE
Cosmos 1241 Rocket 4.4 19:16:58 10° NW 19:23:13 87° SW 19:27:25 22° SE
Cosmos 1743 Rocket 4.2 19:20:45 10° S 19:23:41 40° SSE 19:23:41 40° SSE
GEOS 3 Rocket 3.9 19:23:24 19° SSE 19:27:20 69° SW 19:32:44 10° NW
Meteor 2-15 4.5 19:21:31 10° SSE 19:27:24 52° E 19:28:40 45° NE
Cosmos 1328 Rocket 3.8 19:23:11 10° NNW 19:27:34 66° W 19:31:52 10° S
Cosmos 2098 Rocket 3.9 19:30:11 10° NNW 19:34:59 66° W 19:41:03 10° S
Cosmos 1821 Rocket 3.8 19:30:09 10° N 19:36:20 76° E 19:42:31 10° SSE
Cosmos 1535 Rocket 4.3 19:30:34 10° N 19:36:44 66° ENE 19:39:23 35° SSE
ERS-2 4.1 19:34:00 10° SSW 19:37:17 30° W 19:40:36 10° NW
Cosmos 1898 Rocket 4.2 19:34:56 10° NNW 19:38:44 40° NNE 19:38:44 40° NNE
SL-16 R/B 4.4 19:40:26 10° N 19:41:24 12° N 19:41:24 12° N
Nadezhda 3 Rocket 4.0 19:45:03 10° S 19:51:22 84° W 19:57:48 10° N
Cosmos 44 3.6 19:47:46 10° SW 19:51:05 52° SW 19:51:05 52° SW
Cosmos 1980 Rocket 4.0 19:53:49 10° NNW 19:55:58 19° N 19:55:58 19° N
Envisat 3.5 20:06:09 54° NW 20:06:09 54° NW 20:10:10 10° NNW
Cosmos 1151 Rocket 4.3 20:04:18 10° NNW 20:08:24 40° W 20:08:36 39° W
COSMOS 2406 3.7 20:11:38 10° SSW 20:15:55 52° SW 20:15:55 52° SW
Cosmos 1934 Rocket 4.1 20:11:29 10° NNW 20:17:50 76° W 20:18:44 65° SSW
Thor Agena Rocket 4.4 20:19:44 45° SW 20:19:44 45° SW 20:23:25 10° SSW
ATLAS 5 CENTAUR R/B 4.0 20:14:44 10° NW 20:17:23 21° N 20:17:23 21° N
Resurs 01 Rocket 4.4 20:28:26 10° NNW 20:28:26 10° NNW 20:28:31 10° NNW
USA 215 3.9 20:52:26 47° NNW 20:52:26 47° NNW 20:57:09 10° WNW
